Location: Minneapolis
(44.9800°N, 93.2640°W)
Time: 00:00:19
(UTC-06:00)

Amateur Radio Satellites - All Passes

Search period start: 10 December 2017 23:30
Search period end: 11 December 2017 23:30
Location: Minneapolis, 44.9800°N, 93.2640°W

Satellite Date Start Highest point End Downlink Frequencies (MHz)
Time Altitude Azimuth
VELOX 1 10 Dec 23:33:38 23:37:48 40° 70° (ENE) 23:42:00 145.980
BEESAT 3 10 Dec 23:35:00 23:36:36 12° 328° (NNW) 23:38:12 437.485
LO-87 10 Dec 23:37:17 23:39:40 17° 267° (W) 23:42:04 145.935 - 145.965
EO-79 10 Dec 23:37:41 23:41:20 28° 96° (E) 23:44:58 145.935-145.965
TIGRISAT 10 Dec 23:41:16 23:43:29 14° 299° (WNW) 23:45:44 435.000
UNISAT 6 10 Dec 23:43:41 23:45:28 12° 300° (WNW) 23:47:16 437.425
POLYITAN 1 10 Dec 23:59:08 00:03:13 47° 99° (E) 00:07:18 437.675
BEESAT 2 11 Dec 00:02:44 00:05:26 17° 323° (NW) 00:08:10 435.950
PRISM 11 Dec 00:06:57 00:09:53 19° 296° (WNW) 00:12:47 437.425
AIST 2D 11 Dec 00:21:29 00:24:23 24° 291° (WNW) 00:27:17 435.315
QB50P2 11 Dec 00:24:23 00:28:36 81° 287° (WNW) 00:32:49 145.880/145.840
FALCONSAT 3 11 Dec 00:25:36 00:27:03 12° 163° (SSE) 00:28:31 435.103
DUCHIFAT 1 11 Dec 00:36:43 00:40:54 86° 287° (WNW) 00:45:06 145.980
UKube-1 11 Dec 00:37:25 00:41:04 27° 66° (ENE) 00:44:44 .
50 SAT 11 Dec 00:38:36 00:41:35 37° 72° (ENE) 00:44:34 437.505
SO-50 11 Dec 00:39:13 00:43:45 49° 49° (NE) 00:48:20 436.795
DX 1 11 Dec 00:43:08 00:47:21 49° 71° (ENE) 00:51:35 434.975-435.025
AO-85 11 Dec 00:45:18 00:48:24 21° 321° (NW) 00:51:39 145.980
SPROUT 11 Dec 00:49:20 00:52:35 21° 267° (W) 00:55:51 437.525
NANOSAT C BR1 11 Dec 01:00:49 01:04:46 41° 290° (WNW) 01:08:42 145.865
AO-91 11 Dec 01:01:49 01:04:19 18° 92° (E) 01:06:42 145.960
VELOX 1 11 Dec 01:10:58 01:14:23 22° 267° (W) 01:17:50 145.980
EO-79 11 Dec 01:13:27 01:17:02 28° 293° (WNW) 01:20:36 145.935-145.965
RS-15 11 Dec 01:33:38 01:44:37 49° 250° (WSW) 01:55:04 29.354- 29.394
BUGSAT 1 11 Dec 01:34:31 01:38:33 82° 285° (WNW) 01:42:36 437.445
POLYITAN 1 11 Dec 01:35:50 01:38:39 18° 297° (WNW) 01:41:28 437.675
Oscar 19 11 Dec 01:48:19 01:53:32 69° 102° (ESE) 01:58:43 437.125/150
Gurwin Techsat 1B 11 Dec 01:55:51 02:01:07 59° 101° (E) 02:06:21 435.225
AO-7 11 Dec 02:00:08 02:03:54 13° 86° (E) 02:07:39 .
FALCONSAT 3 11 Dec 02:02:47 02:05:24 18° 178° (S) 02:08:00 435.103
CUBESAT XI-V 11 Dec 02:05:05 02:07:16 13° 59° (ENE) 02:09:28 437.345
BEESAT 11 Dec 02:10:53 02:15:18 40° 68° (ENE) 02:19:45 436.000
50 SAT 11 Dec 02:12:35 02:13:44 11° 268° (W) 02:14:53 437.505
UKube-1 11 Dec 02:13:10 02:16:59 30° 263° (W) 02:20:51 .
SO-50 11 Dec 02:20:14 02:23:57 24° 247° (WSW) 02:27:41 436.795
DX 1 11 Dec 02:20:52 02:23:47 17° 268° (W) 02:26:43 434.975-435.025
MOZHAYETS 4 11 Dec 02:27:24 02:31:55 78° 75° (ENE) 02:36:30
YUBILEINY 11 Dec 02:30:26 02:37:54 33° 83° (E) 02:45:23 435.215
ITUPSAT 1 11 Dec 02:35:55 02:40:38 68° 73° (ENE) 02:45:23 437.325
AO-91 11 Dec 02:37:46 02:40:55 28° 292° (WNW) 02:43:54 145.960
PCSat 11 Dec 02:51:39 02:55:20 18° 36° (NE) 02:58:59 145.827
ITAMSAT 1 11 Dec 02:52:29 02:55:42 16° 90° (E) 02:58:53 435.822/435.867
M-CUBED/EXP-1 PRIME 11 Dec 03:09:11 03:13:03 26° 99° (E) 03:16:45 437.505
KKS-1 11 Dec 03:13:33 03:15:47 14° 60° (ENE) 03:18:02 437.445
Oscar 19 11 Dec 03:28:50 03:32:18 18° 300° (WNW) 03:35:46 437.125/150
Gurwin Techsat 1B 11 Dec 03:36:41 03:40:38 22° 299° (WNW) 03:44:35 435.225
CUBESAT XI-V 11 Dec 03:39:19 03:43:58 82° 256° (WSW) 03:48:41 437.345
FALCONSAT 3 11 Dec 03:41:43 03:43:46 14° 193° (SSW) 03:45:50 435.103
BEESAT 11 Dec 03:49:21 03:53:12 24° 266° (W) 03:57:04 436.000
AO-7 11 Dec 03:49:48 03:58:10 69° 105° (ESE) 04:06:31 .
DOVE 4 11 Dec 04:04:46 04:07:22 15° 88° (E) 04:09:53 437.250
STARS 11 Dec 04:07:31 04:10:37 19° 63° (ENE) 04:13:44 437.465
MOZHAYETS 4 11 Dec 04:08:06 04:09:38 11° 272° (W) 04:11:10
ITUPSAT 1 11 Dec 04:16:23 04:18:56 14° 270° (W) 04:21:29 437.325
YUBILEINY 11 Dec 04:25:28 04:34:09 61° 283° (WNW) 04:42:56 435.215
ITAMSAT 1 11 Dec 04:30:29 04:35:39 68° 288° (WNW) 04:40:47 435.822/435.867
BEESAT 3 11 Dec 04:32:18 04:35:09 19° 39° (NE) 04:37:58 437.485
PCSat 11 Dec 04:34:09 04:39:36 80° 58° (ENE) 04:45:02 145.827
M-CUBED/EXP-1 PRIME 11 Dec 04:43:12 04:47:27 37° 297° (WNW) 04:51:31 437.505
KKS-1 11 Dec 04:47:18 04:51:45 74° 257° (WSW) 04:56:14 437.445
BEESAT 2 11 Dec 05:02:27 05:04:37 14° 34° (NE) 05:06:46 435.950
LilacSat-2 11 Dec 05:07:28 05:08:41 11° 89° (E) 05:09:54 437.200
XW-2D 11 Dec 05:26:17 05:28:57 18° 92° (E) 05:31:36 145.860 - 145.880
CUTE-I 11 Dec 05:27:44 05:31:20 18° 90° (E) 05:34:53 437.470
STRAND 1 11 Dec 05:38:16 05:42:12 23° 62° (ENE) 05:46:09 437.568
DOVE 4 11 Dec 05:40:57 05:45:33 59° 287° (WNW) 05:49:51 437.250
XW-2B 11 Dec 05:41:34 05:44:47 25° 95° (E) 05:47:59 145.730 - 145.750
STARS 11 Dec 05:42:21 05:46:37 48° 260° (W) 05:50:53 437.465
AO-7 11 Dec 05:43:15 05:50:22 33° 306° (NW) 05:57:29 .
KAITUO 1B 11 Dec 05:45:09 05:48:01 20° 93° (E) 05:50:51 145.475/437.950
FO-29 11 Dec 05:48:20 05:53:11 18° 51° (NE) 05:58:04 435.910
NUDT-PHONESAT 11 Dec 05:48:48 05:51:41 21° 94° (E) 05:54:32 437.300
AO-85 11 Dec 05:52:44 05:55:51 17° 36° (NE) 05:59:05 145.980
XW-2F 11 Dec 05:57:06 06:00:40 35° 97° (E) 06:04:12 145.980 - 146.000
XW-2C 11 Dec 06:08:16 06:12:04 52° 100° (E) 06:15:49 145.795 - 145.815
BEESAT 3 11 Dec 06:09:09 06:13:02 59° 239° (WSW) 06:16:51 437.485
ITAMSAT 1 11 Dec 06:12:56 06:14:09 11° 307° (NW) 06:15:22 435.822/435.867
PCSat 11 Dec 06:19:06 06:22:18 16° 256° (WSW) 06:25:29 145.827
YUBILEINY 11 Dec 06:28:59 06:33:11 14° 308° (NW) 06:37:24 435.215
SEEDS 11 Dec 06:31:14 06:33:46 15° 90° (E) 06:36:16 437.485
BEESAT 2 11 Dec 06:38:57 06:43:00 81° 55° (NE) 06:46:59 435.950
LilacSat-2 11 Dec 06:39:29 06:43:20 60° 286° (WNW) 06:47:09 437.200
CUTE 1.7 + AOD 2 11 Dec 06:45:05 06:49:02 34° 97° (E) 06:52:57 437.475
HO-68 11 Dec 06:46:21 06:53:05 41° 98° (E) 06:59:43 435.675
CUBEBUG 2 11 Dec 06:51:15 06:54:42 24° 94° (E) 06:58:12 437.445
XW-2D 11 Dec 06:59:41 07:03:14 36° 289° (WNW) 07:06:47 145.860 - 145.880
UWE-3 11 Dec 06:59:55 07:02:48 17° 92° (E) 07:05:42 435.000/436.395/437.385
AAUSAT CUBESAT 2 11 Dec 07:02:48 07:05:06 14° 90° (E) 07:07:23 437.432
NO-84 11 Dec 07:04:10 07:05:19 12° 125° (SE) 07:06:30 435.350 FM
CUTE-I 11 Dec 07:06:32 07:11:50 65° 288° (WNW) 07:17:05 437.470
XW-2B 11 Dec 07:15:39 07:18:54 26° 292° (WNW) 07:22:07 145.730 - 145.750
STRAND 1 11 Dec 07:16:03 07:21:02 52° 260° (W) 07:26:03 437.568
KAITUO 1B 11 Dec 07:18:38 07:22:02 31° 290° (WNW) 07:25:24 145.475/437.950
NUDT-PHONESAT 11 Dec 07:22:14 07:25:32 30° 290° (WNW) 07:28:50 437.300
XW-2A 11 Dec 07:26:17 07:29:03 23° 95° (E) 07:31:49 145.665 - 145.685
FO-29 11 Dec 07:29:16 07:36:52 71° 71° (ENE) 07:44:43 435.910
XW-2F 11 Dec 07:31:46 07:34:31 19° 294° (WNW) 07:37:16 145.980 - 146.000
AO-85 11 Dec 07:32:09 07:36:56 82° 56° (NE) 07:42:01 145.980
ZACube-1 11 Dec 07:33:47 07:37:06 21° 93° (E) 07:40:28 437.345
XW-2C 11 Dec 07:43:47 07:45:48 14° 297° (WNW) 07:47:50 145.795 - 145.815
Oscar 11 11 Dec 08:00:27 08:04:00 24° 94° (E) 08:07:31 .
SEEDS 11 Dec 08:05:36 08:09:45 52° 288° (WNW) 08:13:52 437.485
AO-73 11 Dec 08:09:41 08:13:49 44° 99° (E) 08:18:01 145.935
BEESAT 2 11 Dec 08:19:17 08:20:04 10° 252° (WSW) 08:20:49 435.950
CUTE 1.7 + AOD 2 11 Dec 08:21:14 08:24:41 24° 294° (WNW) 08:28:08 437.475
CUBEBUG 2 11 Dec 08:27:36 08:31:21 32° 291° (WNW) 08:35:10 437.445
HO-68 11 Dec 08:34:08 08:40:49 43° 297° (WNW) 08:47:27 435.675
UWE-3 11 Dec 08:35:23 08:39:28 46° 288° (WNW) 08:43:37 435.000/436.395/437.385
AAUSAT CUBESAT 2 11 Dec 08:36:47 08:40:53 53° 287° (WNW) 08:44:55 437.432
NO-84 11 Dec 08:38:51 08:41:59 77° 324° (NW) 08:45:25 435.350 FM
DELFI C3 11 Dec 08:42:27 08:44:11 13° 89° (E) 08:45:56 145.870
CUTE-I 11 Dec 08:49:48 08:50:51 11° 307° (NW) 08:51:54 437.470
XW-2A 11 Dec 08:58:56 09:01:40 22° 291° (WNW) 09:04:23 145.665 - 145.685
TIGRISAT 11 Dec 09:03:16 09:07:34 71° 75° (ENE) 09:11:50 435.000
O/OREOS (USA 219) 11 Dec 09:05:17 09:09:44 52° 109° (ESE) 09:14:12 437.305
UNISAT 6 11 Dec 09:05:25 09:09:44 82° 76° (ENE) 09:14:03 437.425
ZACube-1 11 Dec 09:09:31 09:13:29 38° 290° (WNW) 09:17:33 437.345
AO-85 11 Dec 09:14:07 09:16:51 15° 250° (WSW) 09:19:39 145.980
FO-29 11 Dec 09:16:05 09:22:26 28° 270° (W) 09:28:58 435.910
PRISM 11 Dec 09:21:36 09:25:28 38° 70° (ENE) 09:29:21 437.425
AIST 2D 11 Dec 09:25:37 09:27:05 12° 64° (ENE) 09:28:34 435.315
Oscar 11 11 Dec 09:36:13 09:40:11 35° 291° (WNW) 09:44:08 .
Max Valier Satellite 11 Dec 09:40:14 09:43:44 38° 98° (E) 09:47:13 145.860
QB50P2 11 Dec 09:46:26 09:47:23 11° 59° (ENE) 09:48:21 145.880/145.840
AO-73 11 Dec 09:46:40 09:49:46 20° 295° (WNW) 09:52:54 145.935
DELFI C3 11 Dec 10:15:24 10:19:17 55° 287° (WNW) 10:23:08 145.870
NO-84 11 Dec 10:17:08 10:19:45 21° 346° (NNW) 10:22:32 435.350 FM
EO-88 11 Dec 10:17:24 10:21:05 75° 100° (E) 10:24:45 145.990 - 145.960
NANOSAT C BR1 11 Dec 10:19:54 10:22:49 19° 64° (ENE) 10:25:46 145.865
EO-79 11 Dec 10:31:48 10:35:21 27° 67° (ENE) 10:38:55 145.935-145.965
TIGRISAT 11 Dec 10:43:22 10:44:44 11° 271° (W) 10:46:05 435.000
O/OREOS (USA 219) 11 Dec 10:46:00 10:49:27 21° 308° (NW) 10:52:54 437.305
POLYITAN 1 11 Dec 10:53:11 10:57:10 45° 71° (ENE) 11:01:11 437.675
AIST 2D 11 Dec 10:56:26 10:59:49 48° 260° (W) 11:03:16 435.315
PRISM 11 Dec 10:57:46 11:00:51 20° 267° (W) 11:03:57 437.425
LO-87 11 Dec 11:00:43 11:03:52 29° 97° (E) 11:06:58 145.935 - 145.965
ESTCUBE 1 11 Dec 11:07:22 11:11:22 29° 95° (E) 11:15:19 437.505/2401.250
Max Valier Satellite 11 Dec 11:14:49 11:17:16 17° 295° (WNW) 11:19:42 145.860
QB50P2 11 Dec 11:18:18 11:22:30 86° 257° (WSW) 11:26:44 145.880/145.840
DUCHIFAT 1 11 Dec 11:29:47 11:33:56 87° 74° (ENE) 11:38:08 145.980
Oscar 19 11 Dec 11:30:04 11:33:28 18° 59° (ENE) 11:36:53 437.125/150
Gurwin Techsat 1B 11 Dec 11:41:26 11:44:51 18° 59° (ENE) 11:48:19 435.225
NANOSAT C BR1 11 Dec 11:54:14 11:58:13 43° 261° (W) 12:02:14 145.865
NO-84 11 Dec 11:55:32 11:58:03 17° 7° (N) 12:00:40 435.350 FM
AO-91 11 Dec 11:59:19 12:03:29 28° 68° (ENE) 12:07:23 145.960
nSIGHT-1 11 Dec 12:03:54 12:05:48 15° 134° (SE) 12:07:43 .
EO-79 11 Dec 12:07:24 12:11:02 28° 264° (W) 12:14:42 145.935-145.965
BUGSAT 1 11 Dec 12:25:31 12:29:36 87° 75° (ENE) 12:33:39 437.445
POLYITAN 1 11 Dec 12:30:24 12:33:10 17° 268° (W) 12:35:57 437.675
ISS 11 Dec 12:31:18 12:33:50 21° 136° (SE) 12:36:23 437.550
SPROUT 11 Dec 12:31:28 12:35:39 54° 100° (E) 12:39:48 437.525
LO-87 11 Dec 12:34:31 12:37:04 19° 293° (WNW) 12:39:36 145.935 - 145.965
YUBILEINY 11 Dec 12:37:46 12:43:28 18° 56° (ENE) 12:49:07 435.215
ESTCUBE 1 11 Dec 12:44:08 12:48:08 31° 293° (WNW) 12:52:06 437.505/2401.250
VELOX 1 11 Dec 12:57:31 13:01:54 61° 102° (ESE) 13:06:15 145.980
AO-7 11 Dec 13:00:23 13:07:03 28° 52° (NE) 13:13:45 .
Oscar 19 11 Dec 13:07:08 13:12:14 69° 258° (WSW) 13:17:24 437.125/150
Gurwin Techsat 1B 11 Dec 13:18:54 13:24:12 74° 257° (WSW) 13:29:33 435.225
50 SAT 11 Dec 13:24:56 13:27:30 22° 96° (E) 13:30:03 437.505
NO-84 11 Dec 13:32:36 13:36:07 36° 27° (NNE) 13:39:51 435.350 FM
AO-91 11 Dec 13:35:08 13:39:49 37° 262° (W) 13:44:08 145.960
nSIGHT-1 11 Dec 13:38:25 13:41:37 82° 330° (NNW) 13:44:52 .
RS-15 11 Dec 13:48:03 13:57:36 28° 101° (ESE) 14:07:04 29.354- 29.394
M-CUBED/EXP-1 PRIME 11 Dec 13:55:32 13:59:35 42° 64° (ENE) 14:03:52 437.505
UKube-1 11 Dec 13:57:33 14:01:33 35° 98° (E) 14:05:30 .
DX 1 11 Dec 14:05:05 14:09:27 70° 103° (ESE) 14:13:45 434.975-435.025
ISS 11 Dec 14:06:48 14:10:04 63° 335° (NNW) 14:13:21 437.550
SPROUT 11 Dec 14:08:31 14:11:07 16° 297° (WNW) 14:13:43 437.525
ITAMSAT 1 11 Dec 14:11:45 14:16:19 32° 65° (ENE) 14:20:54 435.822/435.867
MOZHAYETS 4 11 Dec 14:21:30 14:24:17 16° 90° (E) 14:27:06
YUBILEINY 11 Dec 14:33:04 14:41:58 77° 80° (E) 14:50:45 435.215
VELOX 1 11 Dec 14:35:13 14:37:51 16° 299° (WNW) 14:40:28 145.980
ITUPSAT 1 11 Dec 14:35:45 14:38:25 15° 90° (E) 14:41:04 437.325
AO-7 11 Dec 14:50:42 14:59:01 80° 253° (WSW) 15:07:24 .
50 SAT 11 Dec 14:57:03 14:59:21 19° 292° (WNW) 15:01:38 437.505
NO-84 11 Dec 15:09:46 15:13:29 44° 224° (SW) 15:17:26 435.350 FM
DOVE 4 11 Dec 15:10:41 15:14:48 24° 64° (ENE) 15:18:50 437.250
nSIGHT-1 11 Dec 15:15:21 15:18:10 27° 350° (N) 15:20:59 .
M-CUBED/EXP-1 PRIME 11 Dec 15:30:48 15:34:07 22° 263° (W) 15:37:35 437.505
UKube-1 11 Dec 15:33:56 15:37:23 24° 295° (WNW) 15:40:48 .
CUBESAT XI-V 11 Dec 15:34:25 15:38:05 22° 93° (E) 15:41:43 437.345
DX 1 11 Dec 15:42:51 15:45:04 14° 300° (WNW) 15:47:15 434.975-435.025
ISS 11 Dec 15:44:08 15:46:58 26° 353° (N) 15:49:49 437.550
BEESAT 11 Dec 15:46:04 15:50:50 72° 103° (ESE) 15:55:35 436.000
ITAMSAT 1 11 Dec 15:50:54 15:55:42 36° 263° (W) 16:00:30 435.822/435.867
RS-15 11 Dec 15:56:12 16:08:35 90° 304° (NW) 16:20:52 29.354- 29.394
MOZHAYETS 4 11 Dec 15:57:16 16:01:49 59° 288° (WNW) 16:06:21
XW-2D 11 Dec 16:10:24 16:12:00 12° 62° (ENE) 16:13:35 145.860 - 145.880
ITUPSAT 1 11 Dec 16:11:57 16:16:41 67° 287° (WNW) 16:21:25 437.325
XW-2B 11 Dec 16:25:07 16:27:36 17° 65° (ENE) 16:30:06 145.730 - 145.750
KAITUO 1B 11 Dec 16:27:44 16:29:36 13° 63° (ENE) 16:31:27 145.475/437.950
NUDT-PHONESAT 11 Dec 16:30:31 16:32:20 13° 63° (ENE) 16:34:08 437.300
YUBILEINY 11 Dec 16:31:09 16:37:48 25° 281° (W) 16:44:26 435.215
SO-50 11 Dec 16:35:08 16:39:34 71° 123° (ESE) 16:44:05 436.795
KKS-1 11 Dec 16:37:07 16:40:08 18° 92° (E) 16:43:09 437.445
XW-2F 11 Dec 16:39:49 16:42:48 23° 67° (ENE) 16:45:49 145.980 - 146.000
DOVE 4 11 Dec 16:46:57 16:52:07 53° 261° (W) 16:57:12 437.250
AO-7 11 Dec 16:48:09 16:53:03 17° 272° (W) 16:58:01 .
CUTE-I 11 Dec 16:50:54 16:55:46 36° 66° (ENE) 17:00:39 437.470
XW-2C 11 Dec 16:51:11 16:54:34 32° 70° (ENE) 16:58:00 145.795 - 145.815
nSIGHT-1 11 Dec 16:52:11 16:55:01 27° 10° (N) 16:57:50 .
CUBESAT XI-V 11 Dec 17:11:09 17:15:37 43° 290° (WNW) 17:20:04 437.345
HO-68 11 Dec 17:17:03 17:23:33 38° 61° (ENE) 17:30:04 435.675
ISS 11 Dec 17:21:06 17:24:05 30° 13° (NNE) 17:27:04 437.550
LilacSat-2 11 Dec 17:22:35 17:26:22 84° 77° (ENE) 17:30:14 437.200
SEEDS 11 Dec 17:25:06 17:27:25 15° 62° (ENE) 17:29:45 437.485
BEESAT 11 Dec 17:25:17 17:28:02 15° 301° (WNW) 17:30:47 436.000
STARS 11 Dec 17:29:50 17:33:27 25° 95° (E) 17:37:03 437.465
O/OREOS (USA 219) 11 Dec 17:34:52 17:38:03 18° 51° (NE) 17:41:11 437.305
CUTE 1.7 + AOD 2 11 Dec 17:39:24 17:43:07 31° 69° (ENE) 17:46:54 437.475
XW-2D 11 Dec 17:41:56 17:45:39 58° 260° (W) 17:49:26 145.860 - 145.880
CUBEBUG 2 11 Dec 17:51:17 17:54:45 25° 67° (ENE) 17:58:10 437.445
AAUSAT CUBESAT 2 11 Dec 17:55:12 17:57:13 13° 61° (ENE) 17:59:14 437.432
XW-2B 11 Dec 17:57:54 18:01:28 39° 262° (W) 18:05:03 145.730 - 145.750
UWE-3 11 Dec 17:59:08 18:01:55 18° 64° (ENE) 18:04:42 435.000/436.395/437.385
KAITUO 1B 11 Dec 17:59:29 18:03:07 51° 260° (W) 18:06:49 145.475/437.950
XW-2A 11 Dec 18:00:42 18:01:45 11° 63° (ENE) 18:02:48 145.665 - 145.685
NUDT-PHONESAT 11 Dec 18:02:10 18:05:44 50° 260° (W) 18:09:22 437.300
RS-15 11 Dec 18:11:31 18:22:48 39° 331° (NNW) 18:33:53 29.354- 29.394
KKS-1 11 Dec 18:12:41 18:16:58 48° 289° (WNW) 18:21:12 437.445
XW-2F 11 Dec 18:13:32 18:16:47 27° 265° (W) 18:20:05 145.980 - 146.000
SO-50 11 Dec 18:17:08 18:20:30 20° 323° (NW) 18:23:55 436.795
XW-2C 11 Dec 18:26:04 18:28:49 19° 267° (W) 18:31:37 145.795 - 145.815
nSIGHT-1 11 Dec 18:28:19 18:31:33 83° 29° (NNE) 18:34:46 .
CUTE-I 11 Dec 18:31:00 18:35:49 33° 264° (W) 18:40:39 437.470
ZACube-1 11 Dec 18:31:45 18:34:50 21° 65° (ENE) 18:37:55 437.345
Oscar 11 11 Dec 18:57:07 19:00:32 24° 66° (ENE) 19:03:59 .
ISS 11 Dec 18:57:31 19:00:48 73° 213° (SSW) 19:04:03 437.550
SEEDS 11 Dec 18:58:26 19:02:36 61° 259° (W) 19:06:50 437.485
HO-68 11 Dec 19:04:15 19:11:07 48° 260° (W) 19:18:03 435.675
STARS 11 Dec 19:05:54 19:09:50 33° 292° (WNW) 19:13:43 437.465
AO-73 11 Dec 19:06:56 19:10:49 41° 71° (ENE) 19:14:42 145.935
O/OREOS (USA 219) 11 Dec 19:13:24 19:17:51 58° 250° (WSW) 19:22:14 437.305
CUTE 1.7 + AOD 2 11 Dec 19:15:25 19:18:57 25° 266° (W) 19:22:32 437.475
PCSat 11 Dec 19:17:33 19:22:45 49° 114° (ESE) 19:27:58 145.827
STRAND 1 11 Dec 19:24:22 19:29:17 46° 99° (E) 19:34:09 437.568
CUBEBUG 2 11 Dec 19:27:30 19:31:16 30° 264° (W) 19:35:00 437.445
AAUSAT CUBESAT 2 11 Dec 19:27:58 19:32:07 66° 259° (W) 19:36:18 437.432
DELFI C3 11 Dec 19:30:43 19:31:32 11° 60° (ENE) 19:32:21 145.870
XW-2A 11 Dec 19:30:47 19:34:00 48° 261° (W) 19:37:17 145.665 - 145.685
UWE-3 11 Dec 19:34:04 19:38:04 45° 261° (W) 19:42:03 435.000/436.395/437.385
BEESAT 3 11 Dec 20:01:50 20:03:43 13° 110° (ESE) 20:05:37 437.485
nSIGHT-1 11 Dec 20:05:31 20:07:21 14° 226° (SW) 20:09:12 .
ZACube-1 11 Dec 20:07:01 20:10:52 37° 262° (W) 20:14:45 437.345
Max Valier Satellite 11 Dec 20:21:00 20:23:54 23° 68° (ENE) 20:26:49 145.860
FO-29 11 Dec 20:22:59 20:29:59 53° 98° (E) 20:36:08 435.910
RS-15 11 Dec 20:29:33 20:39:46 29° 6° (N) 20:49:37 29.354- 29.394
Oscar 11 11 Dec 20:32:32 20:36:29 35° 263° (W) 20:40:29 .
ISS 11 Dec 20:36:03 20:36:45 10° 229° (SW) 20:37:26 437.550
AO-73 11 Dec 20:44:24 20:47:14 18° 268° (W) 20:50:05 145.935
TIGRISAT 11 Dec 20:54:16 20:56:06 12° 89° (E) 20:57:57 435.000
UNISAT 6 11 Dec 20:56:07 20:58:32 14° 91° (E) 21:00:56 437.425
EO-88 11 Dec 20:56:26 20:59:50 40° 72° (ENE) 21:03:17 145.990 - 145.960
PCSat 11 Dec 21:01:34 21:06:21 31° 314° (NW) 21:11:10 145.827
DELFI C3 11 Dec 21:01:39 21:05:39 79° 259° (WSW) 21:09:40 145.870
STRAND 1 11 Dec 21:04:05 21:08:12 25° 297° (WNW) 21:12:17 437.568
BEESAT 3 11 Dec 21:36:46 21:40:44 66° 307° (NW) 21:44:44 437.485
LO-87 11 Dec 21:38:57 21:41:19 17° 66° (ENE) 21:43:41 145.935 - 145.965
AO-85 11 Dec 21:50:58 21:52:53 13° 109° (ESE) 21:54:51 145.980
Max Valier Satellite 11 Dec 21:54:32 21:57:37 26° 265° (W) 22:00:44 145.860
FO-29 11 Dec 22:08:24 22:14:39 33° 300° (WNW) 22:20:18 435.910
BEESAT 2 11 Dec 22:08:27 22:12:28 77° 123° (ESE) 22:16:32 435.950
ESTCUBE 1 11 Dec 22:08:30 22:12:33 34° 68° (ENE) 22:16:39 437.505/2401.250
AIST 2D 11 Dec 22:21:19 22:22:05 11° 89° (E) 22:22:50 435.315
TIGRISAT 11 Dec 22:28:56 22:33:13 66° 286° (WNW) 22:37:33 435.000
UNISAT 6 11 Dec 22:31:20 22:35:34 57° 287° (WNW) 22:39:52 437.425
EO-88 11 Dec 22:31:37 22:33:40 14° 269° (W) 22:35:44 145.990 - 145.960
PRISM 11 Dec 22:35:38 22:39:37 46° 100° (E) 22:43:33 437.425
RS-15 11 Dec 22:44:22 22:55:59 50° 39° (NE) 23:06:56 29.354- 29.394
QB50P2 11 Dec 23:02:36 23:04:40 13° 90° (E) 23:06:44 145.880/145.840
LO-87 11 Dec 23:11:15 23:14:28 33° 262° (W) 23:17:43 145.935 - 145.965
DUCHIFAT 1 11 Dec 23:13:35 23:15:08 12° 89° (E) 23:16:40 145.980
BEESAT 3 11 Dec 23:17:22 23:19:02 12° 327° (NNW) 23:20:41 437.485
